Marathon, FL

10:41 PM EST on January 16, 2018 (GMT -0500)
Florida Keys Marathon

Weather History for KMTH - April, 2012

Change the Weather History Date:

Friday, April 6, 2012

  Actual Average Record
Temperature  
Mean Temperature 83 °F 76 °F  
Max Temperature 88 °F 82 °F 90 °F (2009)
Min Temperature 77 °F 71 °F 64 °F (2004)
Degree Days  
Heating Degree Days 0 0  
Month to date heating degree days 0 0  
Since 1 July heating degree days 33 81  
Cooling Degree Days 18 11  
Month to date cooling degree days 89 66  
Year to date cooling degree days 1007 731  
Growing Degree Days 32 (Base 50)    
Moisture  
Dew Point 71 °F    
Average Humidity 69    
Maximum Humidity 79    
Minimum Humidity 59    
Precipitation  
Precipitation 0.01 in 0.08 in 0.40 in (2007)
Month to date precipitation 1.39 0.46  
Year to date precipitation 5.46 6.67  
Snow  
Snow 0.00 in - - ()
Month to date snowfall 0.0  
Since 1 July snowfall 0.0  
Snow Depth 0.00 in    
Sea Level Pressure  
Sea Level Pressure 29.86 in    
Wind  
Wind Speed 10 mph (West)    
Max Wind Speed 20 mph    
Max Gust Speed 30 mph    
Visibility 10 miles    
Events Rain , Thunderstorm    
T = Trace of Precipitation, MM = Missing Value Source: NWS Daily Summary

Daily Weather History Graph

Daily Weather History Graph

Search for Another Location

Airport or City:

Trip Planner

Search our weather history database for the weather conditions in past years. The results will help you decide how hot, cold, wet, or windy it might be!

Date:

Astronomy

Apr. 06, 2012 Rise Set
Actual Time 7:10 AM EDT 7:42 PM EDT
Civil Twilight 6:47 AM EDT 8:05 PM EDT
Nautical Twilight 6:20 AM EDT 8:32 PM EDT
Astronomical Twilight 5:53 AM EDT 9:00 PM EDT
Moon 7:53 PM EDT (4/6) 6:44 AM EDT (4/6)
Length of Visible Light 13h 18m
Length of Day
12h 32m
Full, 100% of the Moon is Illuminated
Apr 6
Full
Apr 6
Full
Apr 13
Last Quarter
Apr 21
New
Apr 29
First Quarter

Hourly Weather History & Observations

Time (EDT) Temp. Heat Index Dew Point Humidity Pressure Visibility Wind Dir Wind Speed Gust Speed Precip Events Conditions
12:53 AM 79.0 °F - 72.0 °F 79% 29.89 in 10.0 mi WNW 8.1 mph - N/A   Mostly Cloudy
1:19 AM 78.8 °F - 71.6 °F 78% 29.90 in 9.0 mi West 5.8 mph - N/A   Overcast
1:32 AM 78.8 °F - 73.4 °F 83% 29.89 in 10.0 mi Variable 4.6 mph - 0.00 in   Overcast
1:41 AM 78.8 °F - 73.4 °F 83% 29.88 in 8.0 mi West 3.5 mph - 0.01 in Rain , Thunderstorm Light Rain
1:53 AM 78.1 °F - 73.0 °F 84% 29.88 in 10.0 mi WSW 4.6 mph - 0.01 in Thunderstorm Scattered Clouds
2:11 AM 78.8 °F - 73.4 °F 83% 29.87 in 9.0 mi Calm Calm - N/A   Partly Cloudy
2:53 AM 78.1 °F - 73.0 °F 84% 29.84 in 10.0 mi Calm Calm - N/A   Clear
3:53 AM 77.0 °F - 70.0 °F 79% 29.79 in 10.0 mi SSW 10.4 mph 18.4 mph N/A   Clear
4:53 AM 77.0 °F - 70.0 °F 79% 29.80 in 10.0 mi SSW 10.4 mph 18.4 mph N/A   Clear
5:53 AM 77.0 °F - 68.0 °F 74% 29.82 in 10.0 mi SW 6.9 mph - N/A   Clear
6:53 AM 78.1 °F - 69.1 °F 74% 29.84 in 10.0 mi SSW 8.1 mph - N/A   Clear
7:53 AM 79.0 °F - 70.0 °F 74% 29.86 in 10.0 mi SW 8.1 mph 16.1 mph N/A   Partly Cloudy
8:27 AM 80.6 °F 84.6 °F 71.6 °F 74% 29.88 in 10.0 mi SW 6.9 mph - N/A   Mostly Cloudy
8:53 AM 81.0 °F 85.2 °F 72.0 °F 74% 29.88 in 10.0 mi SW 4.6 mph - N/A   Overcast
9:53 AM 82.9 °F 88.8 °F 73.0 °F 72% 29.88 in 10.0 mi SW 8.1 mph 19.6 mph N/A   Mostly Cloudy
10:10 AM 82.4 °F 88.2 °F 73.4 °F 74% 29.88 in 10.0 mi WSW 9.2 mph 18.4 mph N/A   Scattered Clouds
11:53 AM 84.9 °F 90.7 °F 72.0 °F 65% 29.90 in 10.0 mi West 15.0 mph 20.7 mph N/A   Mostly Cloudy
12:14 PM 84.2 °F 89.6 °F 71.6 °F 66% 29.88 in 10.0 mi WSW 11.5 mph 21.9 mph N/A   Scattered Clouds
12:53 PM 86.0 °F 91.5 °F 71.1 °F 61% 29.86 in 10.0 mi WSW 15.0 mph 26.5 mph N/A   Clear
1:53 PM 86.0 °F 91.5 °F 71.1 °F 61% 29.86 in 10.0 mi WSW 16.1 mph 25.3 mph N/A   Clear
2:53 PM 87.1 °F 92.8 °F 71.1 °F 59% 29.84 in 10.0 mi WSW 15.0 mph 23.0 mph N/A   Clear
3:53 PM 84.9 °F 90.7 °F 72.0 °F 65% 29.83 in 10.0 mi WSW 13.8 mph 23.0 mph N/A   Mostly Cloudy
4:48 PM 84.2 °F 89.6 °F 71.6 °F 66% 29.82 in 10.0 mi WSW 11.5 mph 21.9 mph N/A   Mostly Cloudy
4:53 PM 82.9 °F 88.0 °F 72.0 °F 69% 29.81 in 10.0 mi WSW 9.2 mph 23.0 mph N/A   Mostly Cloudy
5:02 PM 82.4 °F 88.2 °F 73.4 °F 74% 29.82 in 10.0 mi West 10.4 mph 23.0 mph N/A Thunderstorm Mostly Cloudy
5:17 PM 84.2 °F 89.6 °F 71.6 °F 66% 29.83 in 10.0 mi West 16.1 mph 26.5 mph N/A Thunderstorm Mostly Cloudy
5:24 PM 84.2 °F 89.6 °F 71.6 °F 66% 29.82 in 10.0 mi West 17.3 mph 26.5 mph N/A Thunderstorm Mostly Cloudy
6:00 PM 78.8 °F - 71.6 °F 78% 29.83 in 7.0 mi NNW 12.7 mph 25.3 mph 0.00 in Rain , Thunderstorm Light Rain
6:07 PM 78.8 °F - 71.6 °F 78% 29.83 in 5.0 mi NW 10.4 mph - 0.00 in Rain Light Rain
6:27 PM 80.6 °F 84.6 °F 71.6 °F 74% 29.84 in 10.0 mi WNW 12.7 mph 21.9 mph 0.00 in   Mostly Cloudy
6:53 PM 81.0 °F 84.9 °F 71.1 °F 72% 29.84 in 10.0 mi WNW 11.5 mph 18.4 mph 0.00 in   Mostly Cloudy
7:53 PM 79.0 °F - 70.0 °F 74% 29.86 in 10.0 mi NW 13.8 mph 20.7 mph N/A   Partly Cloudy
8:53 PM 79.0 °F - 70.0 °F 74% 29.88 in 10.0 mi NNW 11.5 mph 20.7 mph N/A   Mostly Cloudy
9:05 PM 78.8 °F - 68.0 °F 69% 29.89 in 10.0 mi NW 13.8 mph 20.7 mph N/A   Scattered Clouds
9:53 PM 79.0 °F - 68.0 °F 69% 29.90 in 10.0 mi NNW 10.4 mph 18.4 mph N/A   Clear
10:53 PM 78.1 °F - 66.9 °F 68% 29.91 in 10.0 mi NNW 11.5 mph 21.9 mph N/A   Clear
11:53 PM 78.1 °F - 68.0 °F 71% 29.92 in 10.0 mi NNW 11.5 mph 19.6 mph N/A   Clear